000  
ASUS44 KMEG 251310  
RWRTN  
TENNESSEE HOURLY STATE WEATHER ROUNDUP  
NATIONAL WEATHER SERVICE MEMPHIS TN  
800 AM CDT SAT MAR 25 2017  
 
TNZ002-004-019-021-049-052-054-088>092-251400-  
WEST TENNESSEE  
 
CITY SKY/WX TMP DP RH WIND PRES REMARKS
 
MEMPHIS INTL CLOUDY 60 58 92 S12 29.94R  
NWS MEMPHIS N/A 59 N/A N/A MISG N/A  
JACKSON LGT RAIN 61 58 90 S12 29.97S  
DYERSBURG LGT RAIN 58 56 93 E10 29.95S  
SOMERVILLE PTSUNNY 59 57 94 VRB7G17 29.94F  
BOLIVAR PTSUNNY 59 57 94 SE9 30.00R  
PARIS CLOUDY 63 52 67 S12 30.01R  
HUNTINGDON PTSUNNY 63 55 77 S13 29.99R HAZE  
SAVANNAH MOSUNNY 66 52 59 S14G29 30.03R  

 
 
TNZ008-025-027-028-033-062-065-066-251400-  
NORTH MIDDLE TENNESSEE  
 
CITY SKY/WX TMP DP RH WIND PRES REMARKS
 
NASHVILLE CLOUDY 66 52 60 S16G25 30.09R  
PORTLAND SUNNY 64 52 63 S10G20 30.09R  
CLARKSVILLE CLOUDY 66 52 60 S12 30.04S  
SMYRNA CLOUDY 65 52 62 SE18G30 30.11R  
COOKEVILLE SUNNY 63 50 63 S12G18 30.15S  
GALLATIN MOSUNNY 66 52 59 SE9G16 30.14R  
CROSSVILLE CLOUDY 58 47 66 S14G22 30.21S  

 
 
TNZ061-075-076-078-094-096-097-251400-  
SOUTH MIDDLE TENNESSEE  
 
CITY SKY/WX TMP DP RH WIND PRES REMARKS
 
FAYETTEVILLE SUNNY 63 52 67 S18G25 30.15R  
TULLAHOMA SUNNY 61 46 59 S12 30.16R  
WINCHESTER SUNNY 61 48 63 SE13 30.17S  
MCMINNVILLE SUNNY 63 50 63 S8 30.16S  
COLUMBIA SUNNY 64 55 72 S15 30.07R  
SHELBYVILLE SUNNY 64 52 63 SE13 30.14R  

 
 
TNZ017-018-042-046-047-251400-  
NORTHEAST TENNESSEE  
 
CITY SKY/WX TMP DP RH WIND PRES REMARKS
 
TRI CITIES CLOUDY 54 48 80 CALM 30.27S  
ELIZABETHTON PTSUNNY 55 46 71 NE3 30.27F  

 
 
TNZ012-013-036-069-073-074-251400-  
CENTRAL EAST TENNESSEE  
 
CITY SKY/WX TMP DP RH WIND PRES REMARKS
 
KNOXVILLE CLOUDY 60 47 61 W5 30.23R  
OAK RIDGE MOSUNNY 57 48 72 CALM 30.25R  
DOWNTOWN KNOXV SUNNY 52 50 93 CALM 30.25R  
GATLINBURG SUNNY 54 46 76 CALM 30.23S  
MORRISTOWN SUNNY 57 48 72 CALM 30.24S  
JACKSBORO SUNNY 63 48 59 S13G22 30.25S  

 
 
TNZ083-085-099-251400-  
SOUTHEAST TENNESSEE  
 
CITY SKY/WX TMP DP RH WIND PRES REMARKS
 
CHATTANOOGA PTSUNNY 62 50 64 S9 30.24R  

 
 
SKY/WX REPORTED AS FAIR MEANS FEW OR NO CLOUDS BELOW  
12 THOUSAND FEET.  
 
 
 
CLICK HERE TO GO TO PREVIOUS BULLETINS.

The Nexlab TN Page Main Text Page